Location: Unspecified
(0.0000°N, 0.0000°E)
Time: 21:47:09
(UTC+00:00)

Hubble Space Telescope - Pass Details

Date: 13 January 2018
Orbit: 537 x 541 km, 28.5° (Epoch: 23 January)

Event Time Altitude Azimuth Distance (km) Brightness Sun altitude
Rises 19:04:35 0° 224° (SW) 2,674 5.6 -13.0°
Reaches altitude 10° 19:07:03 10° 213° (SSW) 1,783 4.3 -13.5°
Maximum altitude 19:10:42 30° 150° (SSE) 969 2.0 -14.4°
Enters shadow 19:12:42 20° 104° (ESE) 1,271 2.2 -14.8°
